sat.trackr.live / text

‹ back to catalog

WEILAI 1R

NORAD 44884 · 2019-093F

PAYLOAD ACTIVE UNKNOWN

§ Identity

Operator
Country
PRC
Launch date
2019-12-20
Launch site
TAISC
Launch vehicle
Mass (kg)
RCS (m²)

External: N2YO · Heavens-Above · Gunter

§ Orbital elements

Epoch: 2026-05-25T04:21:53.852256Z

Period
95.97 min
Inclination
97.7829°
Eccentricity
0.0016770
Mean motion
15.00407917 rev/d
Perigee alt
554.0 km
Apogee alt
577.3 km
Semi-major
6,943.8 km
B*
3.7931e-4
RAAN
235.0403°
Arg perigee
106.0920°
Mean anomaly
254.2151°
Rev number
34,897

§ Raw data

WEILAI 1R1 44884U 19093F   26145.18187329  .00004721  00000+0  37931-3 0  99962 44884  97.7829 235.0403 0016770 106.0920 254.2151 15.00407917348973

JSON: /api/v1/satellites/44884 · /tle

For live sub-satellite position, see the globe view (requires WebGL).

§ Visibility from observer

Set your observer location to see the next 7 days of passes ≥ 10°. The values pass through the URL so the page stays shareable.

No JS? Fill the form by hand. The geolocation button needs JavaScript.

§ Radio — SatNOGS DB

ModeDescriptionDownlinkUplink
FM Mode U 401.546 MHz

1 transmitter · refreshed weekly from db.satnogs.org